Flag for Germany Weather for the Past 2 Weeks in Brandenburg an der Havel, Brandenburg, Germany

Now
66 °F

Passing clouds.


Feels Like: 66 °F
Forecast: 53 / 72 °F
Wind: 6 mph from East

Location: Berlin-Tegel

Current Time: May 6, 2016 at 9:49:05 PM

Latest Report: May 6, 2016 at 9:20 PM


Visibility: N/A

Pressure: 30.04 "Hg

Humidity: 37%

Dew Point: 39 °F

Location of Brandenburg an der HavelLocation

Historic Weather in Brandenburg an der Havel — Graph

°F

Brandenburg an der Havel Temperature Yesterday

Maximum temperature yesterday: 68 °F (at 3:50 PM)
Minimum temperature yesterday: 41 °F (at 1:50 AM)
Average temperature yesterday: 57 °F

High & Low Weather Summary for the Past Weeks

 TemperatureHumidityPressure
High75 °F (May 6, 3:50 PM)93% (Apr 24, 10:50 PM)30.39 "Hg (Apr 24, 10:50 PM)
Low32 °F (Apr 29, 5:50 AM)22% (May 5, 11:50 AM)29.45 "Hg (Apr 26, 5:50 AM)
Average49 °F58%29.98 "Hg
* Reported Apr 21 8:20 PM — May 6 8:20 PM, Brandenburg an der Havel, Weather by CustomWeather, © 2016

Note: Actual official high and low records may vary slightly from our data, if they occured in-between our weather recording intervals... More about our weather records

Advertising

Brandenburg an der Havel Weather History for the Previous 24 Hours

Scroll right to see more
 ConditionsComfort  
Time TempWeatherWind HumidityBarometerVisibility
8:20 PM
Fri, May 6
68 °FSunny.8 mph33%30.04 "Hg10 mi
7:50 PM70 °FSunny.6 mph29%30.04 "Hg10 mi
7:20 PM72 °FPassing clouds.10 mph27%30.04 "HgN/A
6:50 PM73 °FSunny.9 mph25%30.04 "Hg10 mi
6:20 PM73 °FPassing clouds.10 mph23%30.04 "HgN/A
5:50 PM73 °FPassing clouds.12 mph22%30.04 "HgN/A
5:20 PM75 °FPassing clouds.12 mph24%30.04 "HgN/A
4:50 PM73 °FPassing clouds.13 mph25%30.07 "HgN/A
4:20 PM73 °FPassing clouds.10 mph27%30.07 "HgN/A
3:50 PM75 °FPassing clouds.8 mph24%30.07 "HgN/A
3:20 PM73 °FPassing clouds.9 mph23%30.09 "HgN/A
2:50 PM73 °FPassing clouds.9 mph27%30.09 "HgN/A
2:20 PM72 °FPassing clouds.12 mph29%30.09 "HgN/A
1:50 PM72 °FPassing clouds.9 mph31%30.12 "HgN/A
1:20 PM72 °FPassing clouds.10 mph29%30.12 "HgN/A
12:50 PM72 °FPassing clouds.10 mph33%30.12 "HgN/A
12:20 PM70 °FPassing clouds.10 mph33%30.15 "HgN/A
11:50 AM70 °FPassing clouds.8 mph33%30.15 "HgN/A
11:20 AM70 °FPassing clouds.10 mph35%30.15 "HgN/A
10:50 AM68 °FPassing clouds.10 mph35%30.18 "HgN/A
10:20 AM68 °FPassing clouds.10 mph35%30.18 "HgN/A
9:50 AM66 °FPassing clouds.9 mph37%30.18 "HgN/A
9:20 AM64 °FPassing clouds.8 mph43%30.18 "HgN/A
8:50 AM63 °FSunny.6 mph49%30.18 "Hg10 mi
8:20 AM61 °FPassing clouds.5 mph52%30.18 "HgN/A
7:50 AM57 °FPassing clouds.5 mph59%30.18 "HgN/A
7:20 AM54 °FPassing clouds.3 mph63%30.18 "HgN/A
6:50 AM52 °FPassing clouds.3 mph67%30.18 "HgN/A
6:20 AM50 °FClear.2 mph71%30.18 "Hg10 mi
5:50 AM48 °FClear.2 mph71%30.18 "Hg10 mi
5:20 AM48 °FPassing clouds.3 mph76%30.18 "HgN/A
4:50 AM48 °FClear.2 mph71%30.18 "Hg10 mi
4:20 AM50 °FPassing clouds.5 mph67%30.21 "HgN/A
3:50 AM50 °FPassing clouds.3 mph71%30.21 "HgN/A
3:20 AM50 °FPassing clouds.3 mph67%30.21 "HgN/A
2:50 AM52 °FClear.2 mph62%30.21 "Hg10 mi
2:20 AM52 °FPassing clouds.3 mph67%30.21 "HgN/A
1:50 AM54 °FPassing clouds.5 mph63%30.21 "HgN/A
1:20 AM54 °FPassing clouds.3 mph63%30.24 "HgN/A
12:50 AM55 °FPassing clouds.5 mph59%30.24 "HgN/A
12:20 AM55 °FClear.5 mph59%30.24 "Hg10 mi
11:50 PM
Thu, May 5
57 °FPassing clouds.6 mph55%30.24 "HgN/A
11:20 PM57 °FPassing clouds.6 mph55%30.24 "HgN/A
10:50 PM59 °FPassing clouds.6 mph51%30.24 "HgN/A
10:20 PM59 °FPassing clouds.5 mph51%30.24 "HgN/A
9:50 PM61 °FPassing clouds.3 mph48%30.24 "HgN/A
9:20 PM63 °FSunny.5 mph42%30.24 "Hg10 mi
Weather by CustomWeather, © 2016

See weather overviewHow to use our weather pages